Theta_e
308 308 309 309 308 305 299 294 290 307 309 295 294 290 297 297 297 299 297 296 293 292 291 290 289 290 293 299 297 290 291 286 281 285 292 297 294 290 289 282 281 285 282 281
307 307 309 308 308 305 295 291 293 308 305 290 290 294 297 298 297 296 295 295 295 293 289 285 292 292 297 298 295 292 292 283 277 280 286 291 289 291 290 288 287 282 280 281
307 307 309 308 307 306 296 291 293 298 299 297 293 292 294 295 300 295 296 294 295 291 289 290 288 290 297 299 298 302 295 283 281 278 282 285 284 289 291 287 281 284 285 287
306 307 309 308 306 305 301 294 291 293 289 291 292 294 294 292 291 295 294 291 293 290 285 288 287 291 292 295 301 294 289 283 286 288 290 290 288 289 290 288 288 283 286 288
306 306 308 307 306 304 300 291 289 292 290 293 294 293 293 292 293 291 291 290 292 291 285 288 286 288 288 288 290 288 289 282 286 285 289 290 286 290 291 291 291 290 290 287
306 305 307 307 305 303 295 296 298 294 291 292 291 291 292 293 294 293 293 292 290 289 290 293 292 291 291 290 286 285 285 282 281 279 287 286 281 288 290 290 292 290 284 291
307 305 306 306 304 302 297 295 296 292 286 291 291 293 293 293 293 290 294 294 290 294 298 295 292 290 291 291 290 289 285 284 282 278 281 275 289 294 293 292 293 293 292 293
307 305 305 307 304 302 298 297 298 293 285 290 292 292 292 293 294 291 293 295 296 297 294 288 285 288 290 292 295 292 289 285 280 275 275 283 289 293 292 290 289 293 291 292
307 305 305 307 305 302 300 298 300 295 289 289 292 291 292 290 288 290 295 300 298 296 291 288 281 279 288 284 288 293 292 291 285 282 278 270 288 294 297 295 282 293 292 291
308 305 305 305 306 303 300 298 300 295 288 292 292 288 288 293 290 288 293 294 294 295 287 281 280 281 292 282 286 286 285 283 278 282 276 281 293 295 295 279 281 292 293 293
308 306 305 305 305 304 300 297 300 296 291 292 295 295 293 293 291 288 291 292 293 290 286 286 286 285 286 284 289 289 286 282 278 285 281 277 295 292 284 289 292 293 294 294
307 306 305 305 305 304 302 294 302 301 293 292 297 297 298 298 297 291 293 292 294 293 287 288 287 283 284 282 277 292 281 287 281 285 282 291 293 292 293 293 292 294 294 296
307 306 305 305 305 305 302 297 298 296 292 292 292 294 300 300 299 299 291 296 297 293 295 289 287 282 285 277 280 286 291 292 282 285 289 289 291 294 294 294 294 296 297 298
307 305 305 305 305 306 303 297 299 296 292 287 290 301 297 302 300 298 298 299 300 296 293 288 286 287 292 289 288 287 288 289 285 284 289 290 292 293 294 295 296 297 298 298
307 306 305 305 304 306 303 300 300 299 292 287 289 294 297 300 299 300 301 298 295 293 289 289 285 290 291 292 290 290 289 285 278 279 287 288 290 294 296 295 295 297 298 298
307 307 306 305 305 304 297 292 298 300 298 290 285 294 294 297 299 300 298 299 297 295 293 289 288 292 290 284 283 291 290 290 289 285 290 292 294 295 296 295 296 298 299 297
307 306 306 305 305 298 294 293 297 301 299 290 287 287 296 300 300 299 297 297 295 295 293 289 287 290 291 286 280 289 291 290 292 294 293 291 293 292 296 296 298 299 299 297
306 305 304 304 304 298 294 299 301 301 296 294 286 286 291 299 295 294 299 295 295 294 291 293 292 293 291 287 291 291 290 290 292 293 295 294 295 295 295 296 297 296 297 295
305 304 302 298 295 292 294 302 303 301 295 287 288 286 286 299 296 298 298 297 291 295 290 291 291 290 287 291 291 290 288 287 289 292 293 293 292 293 294 294 295 295 295 294
303 298 294 290 294 301 302 297 292 291 292 291 287 291 288 294 296 293 294 293 289 287 290 295 289 288 294 294 291 290 290 293 294 292 290 290 290 292 292 293 295 296 295 294
297 292 291 298 303 298 293 288 287 286 285 289 289 289 287 295 289 289 293 288 290 285 289 289 286 287 291 294 292 292 293 294 293 294 294 294 293 292 292 293 295 296 297 294
296 297 299 298 294 291 287 287 288 286 285 291 288 290 291 291 295 290 291 287 288 282 292 288 285 289 290 291 290 289 289 289 290 293 293 293 293 293 293 293 294 295 296 297
298 294 291 290 289 283 284 281 285 286 290 292 292 290 292 291 292 289 289 286 282 291 286 286 288 289 290 289 289 289 289 290 290 292 293 294 293 293 293 292 293 294 294 297
291 288 282 285 283 285 286 286 290 294 295 295 295 292 290 291 288 288 286 288 290 283 285 284 288 287 288 289 290 288 287 288 288 291 292 292 292 292 293 292 293 292 293 296
290 289 283 283 289 292 293 294 293 295 297 295 293 292 291 288 288 288 286 283 280 279 284 284 285 287 288 287 288 287 289 290 290 290 291 291 291 291 292 292 292 292 293 295
291 289 286 289 290 290 291 293 293 297 296 296 294 290 288 288 286 283 283 279 277 284 283 286 287 287 287 287 288 288 290 289 289 290 291 291 292 291 291 292 292 292 292 293
288 287 290 290 292 291 293 294 295 298 293 287 288 287 286 290 281 281 281 278 281 286 286 287 287 286 287 287 288 289 289 289 288 289 289 289 291 291 290 289 291 291 292 293
Wind_Speed
13 17 19 21 23 24 7 3 4 2 3 2 1 2 7 7 6 9 3 3 3 3 1 3 3 4 4 6 5 4 2 4 3 8 12 5 3 4 3 4 4 4 3 7
11 15 17 20 22 16 5 5 5 6 4 3 4 6 8 3 7 6 4 2 4 3 3 3 2 4 5 4 3 6 6 0 3 10 5 4 1 5 4 3 2 5 2 6
9 13 15 18 22 18 1 4 4 5 5 2 3 5 6 10 11 4 4 3 3 5 3 2 4 3 4 4 3 10 7 3 6 5 8 5 5 4 8 8 3 5 5 9
7 10 12 16 21 25 2 2 3 3 5 5 9 8 6 10 10 4 4 3 2 2 2 4 3 3 5 6 5 1 6 5 4 6 10 12 13 13 12 10 11 4 3 3
7 7 8 13 18 24 3 3 4 5 6 7 4 5 5 9 14 11 4 3 5 4 3 4 3 1 0 5 3 4 3 4 2 4 13 8 13 9 9 1 3 4 5 5
7 4 5 8 13 12 2 3 3 0 5 5 3 3 7 10 14 11 12 7 3 4 6 4 6 8 6 6 3 1 2 3 3 5 7 12 3 9 5 5 2 3 2 1
7 5 4 3 6 6 1 2 2 2 5 5 5 9 11 10 13 16 18 13 4 5 4 4 4 4 7 6 7 7 3 3 3 5 6 1 5 0 4 12 5 6 6 8
9 7 5 4 0 3 1 2 1 1 4 5 11 8 6 9 13 15 13 14 5 2 2 2 5 5 5 1 5 5 7 4 1 1 1 6 10 3 6 6 4 5 7 11
11 9 7 5 5 2 1 1 1 2 2 5 6 9 5 3 6 5 5 8 5 4 2 2 1 2 3 3 2 3 2 4 5 1 2 4 2 8 9 7 6 8 10 13
13 11 9 7 8 6 2 2 1 1 2 6 4 2 3 4 6 5 4 9 7 4 2 2 1 3 1 1 1 1 3 2 5 2 3 7 5 9 8 6 7 14 12 13
14 12 10 7 6 9 4 2 3 2 3 8 7 3 4 4 5 2 6 7 4 4 3 1 2 2 2 3 1 3 3 0 2 2 3 7 5 5 2 3 6 11 14 18
15 13 11 8 7 11 6 1 1 1 3 6 7 16 19 17 19 1 4 4 3 1 2 3 2 3 3 2 2 2 1 5 4 6 6 3 2 6 1 3 10 13 18 19
16 14 12 9 7 14 9 2 1 0 3 6 5 7 7 14 21 12 3 3 1 3 3 2 2 0 3 0 4 1 4 3 2 5 1 6 12 3 7 12 14 17 19 22
16 15 12 9 9 13 10 2 2 1 2 4 7 4 8 8 6 12 14 5 3 0 3 1 1 1 3 2 3 2 3 3 1 5 4 12 1 9 13 19 21 20 21 21
17 15 12 9 9 10 5 1 3 2 1 3 6 12 11 9 7 11 9 4 3 1 3 1 3 3 1 1 2 1 1 2 3 5 1 4 13 15 18 19 22 22 22 20
17 15 12 9 5 11 2 2 1 4 3 3 5 5 4 7 8 11 7 4 2 2 1 3 4 4 3 1 1 3 3 4 2 5 8 12 17 15 16 18 24 24 21 15
16 14 11 7 10 4 2 1 2 6 3 3 4 5 5 4 4 2 2 2 2 3 1 1 2 3 4 1 3 2 3 3 6 5 10 8 7 14 19 19 21 21 20 12
14 11 6 5 14 3 2 3 8 4 2 2 3 5 4 3 3 2 2 3 2 1 3 2 2 1 1 3 3 3 3 5 4 8 9 12 14 16 16 18 19 21 20 19
14 14 14 5 2 2 2 4 7 3 1 3 3 3 3 5 4 3 2 3 3 3 3 3 3 2 3 2 1 1 0 2 7 9 9 11 13 15 16 19 21 20 17 20
21 4 2 2 4 6 6 2 2 2 2 3 3 2 3 4 3 5 4 3 4 3 4 1 2 2 3 3 3 4 5 6 6 10 12 14 16 16 17 17 18 18 13 19
2 3 2 1 8 2 2 3 3 3 4 4 4 5 4 2 5 3 3 4 4 3 2 2 2 2 2 5 4 3 3 5 6 5 9 10 13 15 16 16 18 17 18 15
6 4 3 2 2 3 3 4 4 5 4 4 4 5 5 5 5 1 2 1 1 2 4 2 2 1 5 5 3 6 7 7 7 8 11 13 14 13 14 14 16 17 17 14
3 2 3 3 3 5 6 5 4 3 4 4 3 3 5 3 1 1 1 1 1 5 2 2 0 4 5 4 4 6 7 7 7 8 10 12 13 14 14 15 14 16 16 16
2 5 5 5 5 5 5 3 2 2 3 5 3 2 4 2 2 2 1 2 4 3 2 2 2 4 4 4 3 3 5 6 6 9 10 13 14 13 14 14 14 14 16 17
4 4 5 7 5 1 1 4 3 3 3 3 3 3 3 1 1 0 2 2 2 1 2 4 3 5 4 2 3 4 5 7 7 8 9 12 12 11 12 14 13 14 14 16
1 4 4 4 1 3 4 3 5 3 6 2 3 3 2 3 3 2 4 2 3 2 3 4 4 5 3 2 1 3 3 4 4 5 7 7 10 10 10 11 13 14 13 15
4 4 4 5 3 3 4 4 5 4 2 3 2 4 5 2 2 1 3 5 4 5 4 3 5 6 5 4 2 1 3 4 4 5 6 7 8 7 9 12 14 13 13 13
Wind_Direction
335 334 337 342 344 341 28 3 329 301 23 41 304 270 313 325 339 343 312 121 156 125 300 273 261 249 238 191 155 135 84 148 257 254 285 203 163 165 160 132 213 229 205 266
332 332 337 341 338 3 318 324 271 308 84 32 330 319 310 286 322 313 311 43 48 52 10 328 273 327 283 143 138 162 178 19 347 333 354 331 93 184 139 108 112 229 202 251
326 331 339 342 334 339 55 344 332 336 35 94 17 337 293 334 328 36 40 28 26 27 2 190 279 323 -0 341 119 131 137 158 169 208 241 229 285 246 200 173 178 214 226 308
317 334 340 343 339 332 92 19 315 349 331 338 329 341 275 354 353 15 37 338 355 297 298 296 295 354 11 346 87 102 132 201 226 264 281 285 279 281 283 209 232 225 288 305
298 329 341 350 346 334 47 26 11 340 290 286 4 350 307 327 337 330 326 346 359 354 257 209 261 338 186 229 335 24 355 249 264 272 280 289 312 320 287 339 130 229 271 235
264 293 328 356 4 349 358 339 321 215 276 304 318 236 327 323 324 304 326 309 288 251 260 214 220 212 204 211 188 233 222 139 41 276 302 303 353 348 342 306 257 240 252 295
233 241 290 343 23 42 173 284 298 299 272 260 260 286 299 308 312 291 289 287 247 238 270 291 279 238 234 208 247 170 221 111 130 271 341 286 144 235 21 296 357 52 355 336
223 225 253 219 184 36 116 299 329 246 268 299 291 321 331 311 292 291 289 294 196 196 341 27 342 355 25 47 231 254 156 141 70 163 240 280 175 1 326 325 262 27 354 337
215 215 240 241 199 200 167 243 223 187 300 252 339 310 321 301 303 306 305 347 297 59 58 45 48 249 193 315 64 57 96 131 132 144 286 247 29 326 296 287 257 11 339 330
210 210 228 242 202 192 159 245 172 132 241 269 354 291 273 286 282 282 299 335 320 49 18 37 190 258 223 95 106 314 309 344 171 205 231 281 349 305 312 69 273 326 324 304
205 207 216 237 255 191 160 248 175 180 238 277 260 239 260 265 269 278 327 337 353 12 39 23 317 16 324 47 245 187 193 177 231 190 229 289 13 349 54 253 297 303 307 304
202 203 214 238 251 187 164 250 173 163 218 271 305 271 251 233 241 6 296 285 301 253 55 4 14 350 355 145 288 104 119 184 201 169 228 258 308 245 247 275 298 300 300 300
198 200 213 234 235 188 175 195 190 39 271 273 249 253 263 229 229 210 251 260 338 15 175 191 254 314 132 337 266 105 346 47 129 27 280 313 314 348 335 319 304 302 302 307
196 198 213 221 226 200 180 180 174 160 277 279 280 324 298 300 186 188 209 251 337 126 79 130 204 249 187 255 236 145 226 355 19 264 305 324 328 336 317 314 310 304 304 303
196 200 209 217 219 206 181 191 212 198 224 289 287 303 258 266 218 205 209 183 178 107 13 280 237 241 313 329 79 238 180 187 129 244 290 239 284 299 306 304 306 306 307 315
197 201 200 217 233 141 122 283 151 197 178 272 287 304 285 280 216 182 194 178 153 125 161 246 284 259 102 60 276 91 58 46 65 272 304 282 283 291 299 308 314 313 323 327
195 197 196 209 175 142 189 214 127 149 152 253 287 288 267 284 150 145 122 130 154 147 229 254 238 294 97 121 227 115 35 342 308 310 322 296 302 312 315 310 310 322 320 323
181 164 188 200 157 62 288 225 191 162 225 261 273 274 294 226 165 170 157 135 134 192 210 250 239 356 59 243 117 97 19 330 313 314 313 297 304 307 316 321 328 328 334 339
144 129 104 77 84 200 235 204 170 179 261 253 235 262 281 345 219 120 107 134 195 198 202 242 130 212 229 154 149 321 187 261 270 289 299 303 318 323 328 332 329 333 340 343
129 102 150 195 205 199 154 173 160 176 196 242 243 264 259 304 317 181 165 178 197 177 224 109 196 245 112 144 182 207 222 255 285 323 338 333 337 335 333 331 332 331 339 343
112 148 199 97 142 179 190 212 211 180 236 216 232 223 221 290 247 224 192 195 174 169 159 197 218 219 139 179 208 256 303 29 358 338 331 334 327 327 326 331 333 340 341 339
139 130 100 123 194 206 237 204 182 211 238 200 214 193 190 237 222 142 322 199 43 142 150 171 231 211 137 121 77 30 17 10 346 341 342 338 338 331 331 334 336 335 337 335
93 119 157 188 172 220 223 205 194 221 209 214 220 170 189 237 332 40 49 304 145 123 196 164 194 111 100 90 52 23 10 1 350 343 337 336 338 341 345 340 340 334 336 336
149 161 185 212 197 227 203 237 168 251 324 325 299 229 192 205 95 177 165 242 145 205 195 132 141 152 134 96 71 37 350 345 336 348 336 338 339 339 337 348 340 336 337 344
166 197 218 214 232 141 246 278 281 276 261 284 323 330 113 315 118 329 61 312 263 165 156 182 173 154 125 80 61 31 344 348 354 345 341 334 331 331 334 339 341 343 340 346
240 224 248 253 268 217 206 209 269 246 253 277 205 238 343 202 154 105 224 140 235 216 150 138 126 130 137 144 56 26 346 340 327 354 329 319 338 336 330 332 348 347 345 349
215 228 224 267 295 241 241 205 257 238 239 219 151 138 189 168 88 280 169 188 213 139 125 132 141 151 169 166 147 259 289 304 318 320 315 310 317 322 335 347 348 348 345 346